Weather History for Mount Pleasant, IA

Change the Weather History Date:

Saturday, May 11, 2013

  Actual Average Record
Temperature  
Mean Temperature 55 °F -  
Max Temperature 63 °F 72 °F 91 °F (1956)
Min Temperature 47 °F 51 °F 35 °F (1952)
Degree Days  
Heating Degree Days 10    
Growing Degree Days 5 (Base 50)    
Moisture  
Dew Point 29 °F    
Average Humidity 43    
Maximum Humidity 83    
Minimum Humidity 13    
Precipitation  
Precipitation 0.00 in - - ()
Sea Level Pressure  
Sea Level Pressure 30.06 in    
Wind  
Wind Speed 10 mph (WNW)    
Max Wind Speed 26 mph    
Max Gust Speed 38 mph    
Visibility 9 miles    
Events      
Averages and records for this station are not official NWS values.
T = Trace of Precipitation, MM = Missing Value Source: NWS Daily Summary

Daily Weather History Graph

Daily Weather History Graph

Search for Another Location

Airport:

Trip Planner

Search our weather history database for the weather conditions in past years. The results will help you decide how hot, cold, wet, or windy it might be!

Date:

Astronomy

May. 11, 2013 Rise Set
Actual Time 5:52 AM CDT 8:13 PM CDT
Civil Twilight 5:21 AM CDT 8:44 PM CDT
Nautical Twilight 4:43 AM CDT 9:22 PM CDT
Astronomical Twilight 4:01 AM CDT 10:04 PM CDT
Moon 6:59 AM CDT (5/11) 9:54 PM CDT (5/11)
Length of Visible Light 15h 22m
Length of Day
14h 21m
Waxing Crescent, 3% of the Moon is Illuminated
May 11
Waxing Crescent
May 17
First Quarter
May 24
Full
May 31
Last Quarter
Jun 8
New

Hourly Weather History & Observations

Time (CDT) Temp. Dew Point Humidity Pressure Visibility Wind Dir Wind Speed Gust Speed Precip Events Conditions
12:15 AM 52.2 °F 46.8 °F 82% 30.01 in 4.0 mi WSW 3.5 mph - N/A   Haze
12:35 AM 51.4 °F 46.0 °F 82% 30.01 in 2.5 mi SW 3.5 mph - N/A   Haze
12:55 AM 50.9 °F 45.7 °F 82% 30.01 in 2.5 mi SSW 4.6 mph - N/A   Haze
1:15 AM 50.5 °F 45.5 °F 83% 30.01 in 2.5 mi SW 3.5 mph - N/A   Haze
1:35 AM 50.2 °F 45.1 °F 83% 30.00 in 2.0 mi SW 4.6 mph - N/A   Haze
1:55 AM 49.6 °F 44.6 °F 83% 30.00 in 3.0 mi SW 4.6 mph - N/A   Haze
2:15 AM 50.0 °F 45.0 °F 83% 29.99 in 4.0 mi WSW 4.6 mph - N/A   Haze
2:35 AM 50.0 °F 45.0 °F 83% 29.99 in 4.0 mi SW 4.6 mph - N/A   Haze
2:55 AM 48.9 °F 43.9 °F 83% 29.99 in 2.5 mi SW 4.6 mph - N/A   Haze
3:15 AM 49.3 °F 44.2 °F 83% 29.99 in 3.0 mi SSW 6.9 mph - N/A   Haze
3:35 AM 49.3 °F 44.4 °F 83% 29.99 in 4.0 mi SSW 6.9 mph - N/A   Haze
3:55 AM 49.5 °F 44.4 °F 83% 29.98 in 4.0 mi SSW 8.1 mph - N/A   Haze
4:15 AM 50.0 °F 45.1 °F 83% 29.98 in 5.0 mi SSW 8.1 mph - N/A   Haze
4:35 AM 50.2 °F 45.3 °F 83% 29.97 in 7.0 mi SW 6.9 mph - N/A   Clear
4:55 AM 50.4 °F 45.5 °F 83% 29.97 in 7.0 mi SW 8.1 mph - N/A   Clear
5:15 AM 50.9 °F 45.5 °F 82% 29.96 in 7.0 mi SSW 8.1 mph - N/A   Clear
5:35 AM 50.9 °F 45.7 °F 82% 29.96 in 7.0 mi WSW 8.1 mph - N/A   Clear
5:55 AM 52.0 °F 46.8 °F 82% 29.95 in 7.0 mi SW 9.2 mph - N/A   Mostly Cloudy
6:15 AM 53.2 °F 47.7 °F 81% 29.95 in 10.0 mi SW 9.2 mph - N/A   Overcast
6:35 AM 54.3 °F 48.4 °F 80% 29.97 in 10.0 mi WSW 10.4 mph - N/A   Mostly Cloudy
6:55 AM 55.0 °F 48.2 °F 78% 29.97 in 10.0 mi West 11.5 mph - N/A   Mostly Cloudy
7:15 AM 55.8 °F 48.4 °F 76% 29.97 in 10.0 mi West 11.5 mph 16.1 mph N/A   Mostly Cloudy
7:35 AM 56.7 °F 47.8 °F 72% 29.98 in 10.0 mi WNW 12.7 mph - N/A   Mostly Cloudy
7:55 AM 58.1 °F 46.8 °F 66% 29.99 in 10.0 mi WNW 15.0 mph 21.9 mph N/A   Scattered Clouds
8:15 AM 58.3 °F 43.2 °F 57% 29.99 in 10.0 mi NW 13.8 mph 21.9 mph N/A   Clear
8:35 AM 58.3 °F 41.5 °F 54% 30.00 in 10.0 mi NW 15.0 mph 27.6 mph N/A   Clear
8:55 AM 59.2 °F 35.8 °F 42% 30.01 in 10.0 mi NW 13.8 mph 25.3 mph N/A   Clear
9:15 AM 58.6 °F 30.9 °F 35% 30.02 in 10.0 mi NW 18.4 mph 27.6 mph N/A   Clear
9:35 AM 59.2 °F 29.3 °F 32% 30.02 in 10.0 mi NW 21.9 mph 32.2 mph N/A   Clear
9:55 AM 59.9 °F 26.4 °F 28% 30.03 in 10.0 mi NW 15.0 mph 32.2 mph N/A   Clear
10:15 AM 60.3 °F 26.4 °F 28% 30.03 in 10.0 mi NW 21.9 mph 29.9 mph N/A   Clear
10:35 AM 60.4 °F 29.1 °F 31% 30.04 in 10.0 mi NW 21.9 mph 29.9 mph N/A   Clear
10:55 AM 61.2 °F 28.0 °F 28% 30.04 in 10.0 mi NW 26.5 mph 32.2 mph N/A   Clear
11:15 AM 61.3 °F 29.7 °F 30% 30.05 in 10.0 mi NW 17.3 mph 28.8 mph N/A   Clear
11:35 AM 61.7 °F 23.7 °F 23% 30.05 in 10.0 mi NW 18.4 mph 34.5 mph N/A   Clear
11:55 AM 62.4 °F 19.2 °F 19% 30.06 in 10.0 mi NNW 26.5 mph 36.8 mph N/A   Clear
12:15 PM 61.9 °F 21.9 °F 22% 30.06 in 10.0 mi NNW 20.7 mph 35.7 mph N/A   Clear
12:35 PM 62.1 °F 23.0 °F 22% 30.06 in 10.0 mi NW 20.7 mph 33.4 mph N/A   Clear
12:55 PM 61.7 °F 17.8 °F 18% 30.07 in 10.0 mi NW 24.2 mph 38.0 mph N/A   Clear
1:15 PM 61.7 °F 18.1 °F 19% 30.07 in 10.0 mi NW 20.7 mph 38.0 mph N/A   Clear
1:35 PM 62.1 °F 18.7 °F 19% 30.08 in 10.0 mi NW 23.0 mph 31.1 mph N/A   Scattered Clouds
1:55 PM 61.9 °F 19.6 °F 20% 30.08 in 10.0 mi NW 24.2 mph 35.7 mph N/A   Scattered Clouds
2:15 PM 61.2 °F 20.3 °F 21% 30.09 in 10.0 mi NNW 25.3 mph 31.1 mph N/A   Scattered Clouds
2:35 PM 61.7 °F 21.0 °F 21% 30.09 in 10.0 mi NNW 26.5 mph 35.7 mph N/A   Scattered Clouds
2:55 PM 61.3 °F 21.2 °F 21% 30.10 in 10.0 mi NW 19.6 mph 29.9 mph N/A   Scattered Clouds
3:15 PM 61.7 °F 18.0 °F 18% 30.10 in 10.0 mi NW 19.6 mph 31.1 mph N/A   Scattered Clouds
3:35 PM 61.2 °F 17.1 °F 18% 30.10 in 10.0 mi NW 21.9 mph 31.1 mph N/A   Scattered Clouds
3:55 PM 61.9 °F 18.5 °F 19% 30.10 in 10.0 mi NW 17.3 mph 33.4 mph N/A   Mostly Cloudy
4:15 PM 61.5 °F 17.8 °F 18% 30.10 in 10.0 mi NW 16.1 mph 31.1 mph N/A   Mostly Cloudy
4:35 PM 60.4 °F 16.3 °F 18% 30.11 in 10.0 mi NW 15.0 mph 28.8 mph N/A   Scattered Clouds
4:55 PM 60.1 °F 13.8 °F 16% 30.11 in 10.0 mi NW 18.4 mph 27.6 mph N/A   Scattered Clouds
5:15 PM 61.5 °F 12.2 °F 14% 30.11 in 10.0 mi NW 16.1 mph 32.2 mph N/A   Mostly Cloudy
5:35 PM 61.7 °F 9.0 °F 13% 30.11 in 10.0 mi WNW 18.4 mph 29.9 mph N/A   Mostly Cloudy
5:55 PM 62.1 °F 13.5 °F 15% 30.12 in 10.0 mi WNW 17.3 mph 27.6 mph N/A   Mostly Cloudy
6:15 PM 60.1 °F 9.7 °F 14% 30.12 in 10.0 mi WNW 16.1 mph 28.8 mph N/A   Mostly Cloudy
6:35 PM 59.7 °F 9.9 °F 14% 30.12 in 10.0 mi NW 15.0 mph 28.8 mph N/A   Scattered Clouds
6:55 PM 59.5 °F 8.1 °F 13% 30.12 in 10.0 mi NW 13.8 mph 24.2 mph N/A   Clear
7:15 PM 58.6 °F 7.9 °F 13% 30.12 in 10.0 mi NW 17.3 mph 28.8 mph N/A   Clear
7:35 PM 58.1 °F 8.6 °F 14% 30.13 in 10.0 mi NW 13.8 mph 19.6 mph N/A   Clear
7:55 PM 57.0 °F 10.0 °F 15% 30.13 in 10.0 mi NW 9.2 mph 17.3 mph N/A   Clear
8:15 PM 55.6 °F 12.0 °F 18% 30.14 in 10.0 mi WNW 9.2 mph - N/A   Clear
8:35 PM 54.9 °F 11.1 °F 18% 30.14 in 10.0 mi WNW 10.4 mph - N/A   Clear
8:55 PM 53.6 °F 13.6 °F 21% 30.14 in 10.0 mi WNW 9.2 mph - N/A   Clear
9:15 PM 53.2 °F 13.8 °F 21% 30.15 in 10.0 mi WNW 8.1 mph - N/A   Clear
9:35 PM 51.8 °F 17.1 °F 25% 30.15 in 10.0 mi WNW 5.8 mph - N/A   Clear
9:55 PM 50.9 °F 17.8 °F 27% 30.15 in 10.0 mi West 5.8 mph - N/A   Clear
10:15 PM 49.6 °F 20.8 °F 32% 30.16 in 10.0 mi West 5.8 mph - N/A   Clear
10:35 PM 48.7 °F 21.9 °F 35% 30.16 in 10.0 mi West 5.8 mph - N/A   Clear
10:55 PM 48.2 °F 22.6 °F 37% 30.16 in 10.0 mi West 5.8 mph - N/A   Clear
11:15 PM 48.6 °F 21.6 °F 35% 30.16 in 10.0 mi West 6.9 mph - N/A   Clear
11:35 PM 48.7 °F 20.3 °F 33% 30.17 in 10.0 mi WNW 8.1 mph - N/A   Clear
11:55 PM 47.5 °F 23.0 °F 38% 30.17 in 10.0 mi West 5.8 mph - N/A   Clear